Date,TemperatureHighF,TemperatureAvgF,TemperatureLowF,DewpointHighF,DewpointAvgF,DewpointLowF,HumidityHigh,HumidityAvg,HumidityLow,PressureMaxIn,PressureMinIn,WindSpeedMaxMPH,WindSpeedAvgMPH,GustSpeedMaxMPH,PrecipitationSumIn
2013-2-1,30.1,25.7,19.3,25.3,13.7,5.9,90,61,42,30.42,29.85,24,3,24,0.01
2013-2-2,28.8,23.0,15.6,25.4,14.2,6.4,94,70,43,30.43,30.07,13,1,13,0.00
2013-2-3,33.7,27.8,19.9,28.9,24.7,18.4,95,88,71,30.07,29.87,15,0,15,0.05
2013-2-4,36.4,29.3,22.4,24.3,17.4,12.4,76,61,46,30.15,29.94,21,1,21,0.00
2013-2-5,37.9,33.2,28.4,29.0,26.8,22.1,87,78,66,29.98,29.89,6,0,6,0.00
2013-2-6,43.7,35.2,27.0,31.3,27.0,21.5,92,73,53,30.40,29.97,13,1,13,0.00
2013-2-7,37.2,31.7,24.2,29.6,24.8,21.4,89,76,60,30.49,30.26,11,1,11,0.00
2013-2-8,40.3,36.2,33.3,39.3,32.9,24.2,96,88,69,30.26,29.76,24,2,24,0.24
2013-2-9,38.9,31.9,27.5,24.5,19.5,16.3,71,60,46,30.43,29.92,25,3,25,0.00
2013-2-10,44.7,32.3,19.5,29.1,19.4,14.9,90,62,33,30.53,30.29,9,0,9,0.00
2013-2-11,52.1,43.2,34.7,50.1,41.5,28.9,98,94,63,30.29,29.73,14,2,14,0.39
2013-2-12,54.7,46.3,36.3,36.2,30.9,28.2,74,56,39,30.02,29.83,17,1,17,0.00
2013-2-13,46.2,35.1,27.6,35.3,30.2,25.4,97,83,60,30.00,29.70,8,1,8,0.15
2013-2-14,48.2,36.9,30.3,33.5,30.7,25.4,97,81,47,30.05,29.80,10,0,10,0.17
2013-2-15,59.2,42.1,29.7,37.9,32.9,28.1,96,74,37,30.07,29.92,18,1,18,0.15
2013-2-16,36.7,34.4,31.2,33.8,29.5,18.8,97,83,59,30.05,29.85,14,2,14,0.02
2013-2-17,32.5,27.4,23.2,20.1,14.6,9.9,72,58,43,30.23,29.85,16,3,17,0.00
2013-2-18,41.0,29.3,19.9,19.1,11.4,7.7,66,48,27,30.42,30.21,14,1,14,0.00
2013-2-19,43.3,36.6,26.3,41.1,30.6,17.9,95,79,55,30.21,29.75,18,2,18,0.18
2013-2-20,36.5,31.0,24.5,24.0,17.1,11.0,63,56,47,30.19,29.87,18,3,18,0.00
2013-2-21,38.9,29.7,23.3,19.6,16.1,12.7,68,57,44,30.37,30.16,14,2,14,0.00
2013-2-22,33.6,30.7,28.5,30.0,23.7,17.6,95,76,62,30.43,30.26,10,1,10,0.02
2013-2-23,44.7,38.2,31.4,43.9,37.4,30.1,98,97,95,30.26,29.84,8,1,8,0.09
2013-2-24,50.6,40.8,30.9,41.2,32.5,21.8,98,74,44,30.14,29.82,17,2,17,0.00
2013-2-25,47.1,35.7,26.2,28.7,24.5,21.0,87,65,46,30.26,30.13,11,1,11,0.00
2013-2-26,42.6,35.7,26.7,41.7,32.9,24.2,97,90,73,30.27,29.66,20,2,20,0.54
2013-2-27,57.1,46.6,39.4,43.2,39.4,34.3,98,78,53,29.72,29.55,12,0,12,0.05
2013-2-28,47.4,42.0,38.6,38.8,32.6,26.1,95,70,46,29.75,29.66,0,0,0,0.03